sat.trackr.live / text

‹ back to catalog

STARLINK-31266

NORAD 59087 · 2024-041P

PAYLOAD ACTIVE UNKNOWN

§ Identity

Operator
Country
US
Launch date
2024-02-29
Launch site
AFETR
Launch vehicle
Mass (kg)
RCS (m²)

Purposes: comms

External: N2YO · Heavens-Above · Gunter

§ Orbital elements

Epoch: 2026-09-20T08:19:22.188576Z

Period
94.27 min
Inclination
43.0044°
Eccentricity
0.0001387
Mean motion
15.27576414 rev/d
Perigee alt
482.1 km
Apogee alt
484.0 km
Semi-major
6,861.2 km
B*
1.6515e-5
RAAN
291.2280°
Arg perigee
266.8137°
Mean anomaly
93.2556°
Rev number
14,409

§ Raw data

STARLINK-312661 59087U 24041P   26263.34678459  .00000192  00000+0  16515-4 0  99982 59087  43.0044 291.2280 0001387 266.8137  93.2556 15.27576414144092

JSON: /api/v1/satellites/59087 · /tle

For live sub-satellite position, see the globe view (requires WebGL).

§ Visibility from observer

Set your observer location to see the next 7 days of passes ≥ 10°. The values pass through the URL so the page stays shareable.

No JS? Fill the form by hand. The geolocation button needs JavaScript.